Location: Newark
(46.3506°N, 1.8861°E)
Time: 08:16:09
(UTC+00:00)

Envisat - Visible Passes

Search period start: 17 October 2019 00:00
Search period end: 27 October 2019 00:00
Orbit: 764 x 766 km, 98.1° (Epoch: 17 October)

Date Brightness Start Highest point End Pass type
(mag) Time Alt. Az. Time Alt. Az. Time Alt. Az.
17 Oct 3.0 17:42:59 10° SSE 17:48:03 77° ENE 17:53:10 10° N visible
17 Oct 6.0 19:24:53 10° WSW 19:27:40 15° W 19:30:28 10° NW visible
18 Oct 4.9 18:46:04 10° SSW 18:50:31 30° W 18:55:00 10° NNW visible
19 Oct 3.5 18:08:32 10° S 18:13:34 64° W 18:18:38 10° NNW visible
20 Oct 3.0 17:31:49 10° SSE 17:36:49 62° ENE 17:41:50 10° N visible
20 Oct 5.7 19:12:48 10° SW 19:16:16 18° W 19:19:46 10° NW visible
21 Oct 6.1 05:39:04 10° NE 05:42:27 18° E 05:45:49 10° SE visible
21 Oct 4.5 18:34:28 10° SSW 18:39:10 38° W 18:43:55 10° NNW visible
22 Oct 3.1 17:57:12 10° S 18:02:17 80° WSW 18:07:24 10° NNW visible
22 Oct 6.3 19:41:17 10° W 19:42:07 10° W 19:42:58 10° WNW visible
23 Oct 3.2 17:20:42 10° SE 17:25:35 50° ENE 17:30:30 10° N visible
23 Oct 5.4 19:00:56 10° SW 19:04:53 23° W 19:08:52 10° NW visible
24 Oct 6.3 05:28:24 10° NE 05:31:03 14° E 05:33:40 10° ESE visible
24 Oct 4.1 18:22:58 10° S 18:27:51 47° W 18:32:46 10° NNW visible
25 Oct 3.0 17:45:57 10° SSE 17:51:01 83° ENE 17:56:08 10° NNW visible
25 Oct 6.1 19:28:16 10° WSW 19:30:42 13° W 19:33:08 10° WNW visible
26 Oct 3.4 17:09:40 10° SE 17:14:23 40° ENE 17:19:07 10° N visible
26 Oct 5.1 18:49:11 10° SSW 18:53:31 28° W 18:57:53 10° NW visible
